Location: Eindhoven
(51.4416°N, 5.4697°E)
Time: 06:46:50
(UTC+01:00)

OTV 5 (USA 277) - Visible Passes

Search period start: 21 February 2019 00:00
Search period end: 03 March 2019 00:00
Orbit: 342 x 346 km, 54.5° (Epoch: 17 February)

Date Brightness Start Highest point End Pass type
(mag) Time Alt. Az. Time Alt. Az. Time Alt. Az.
24 Feb ? 20:01:02 10° SSW 20:01:57 16° S 20:01:57 16° S visible
25 Feb ? 18:52:04 10° SE 18:52:36 10° SE 18:53:08 10° ESE visible
25 Feb ? 20:24:07 10° SW 20:25:20 22° SW 20:25:20 22° SW visible
26 Feb ? 19:13:30 10° SSW 19:15:54 24° SE 19:17:09 18° ESE visible
26 Feb ? 20:47:43 10° WSW 20:48:37 18° WSW 20:48:37 18° WSW visible
27 Feb ? 19:36:33 10° SW 19:39:24 55° SSE 19:40:19 35° E visible
27 Feb ? 21:11:32 10° W 21:11:46 12° W 21:11:46 12° W visible
28 Feb ? 20:00:08 10° WSW 20:03:01 74° NNW 20:03:23 62° NE visible
01 Mar ? 18:49:00 10° SW 18:51:50 53° SSE 18:54:40 10° ENE visible
01 Mar ? 20:23:58 10° W 20:26:23 44° NW 20:26:23 44° NW visible
02 Mar ? 19:12:34 10° WSW 19:15:28 76° NNW 19:17:54 14° ENE visible
02 Mar ? 20:47:49 10° WNW 20:49:20 25° NW 20:49:20 25° NW visible
